TimeEDT,TemperatureF,Dew PointF,Humidity,Sea Level PressureIn,VisibilityMPH,Wind Direction,Wind SpeedMPH,Gust SpeedMPH,PrecipitationIn,Events,Conditions,WindDirDegrees,DateUTC
12:51 AM,28.9,19.0,67,30.16,10.0,Calm,Calm,-,N/A,,Clear,0,2012-04-29 04:51:00
1:51 AM,28.0,18.0,66,30.14,10.0,South,3.5,-,N/A,,Clear,170,2012-04-29 05:51:00
2:51 AM,26.1,18.0,71,30.14,10.0,Calm,Calm,-,N/A,,Clear,0,2012-04-29 06:51:00
3:51 AM,30.9,18.0,59,30.13,10.0,WNW,3.5,-,N/A,,Clear,290,2012-04-29 07:51:00
4:51 AM,28.0,19.0,69,30.13,10.0,Calm,Calm,-,N/A,,Clear,0,2012-04-29 08:51:00
5:51 AM,25.0,19.0,78,30.13,10.0,Calm,Calm,-,N/A,,Clear,0,2012-04-29 09:51:00
6:51 AM,30.2,21.2,69,30.10,10.0,Calm,Calm,-,N/A,,Clear,0,2012-04-29 10:51:00
7:51 AM,35.1,19.0,52,30.14,10.0,Calm,Calm,-,N/A,,Clear,0,2012-04-29 11:51:00
8:51 AM,37.9,12.9,36,30.14,10.0,NW,17.3,27.6,N/A,,Clear,320,2012-04-29 12:51:00
9:51 AM,39.0,12.9,34,30.15,10.0,NW,18.4,34.5,N/A,,Clear,320,2012-04-29 13:51:00
10:51 AM,39.9,12.9,33,30.15,10.0,NNW,17.3,31.1,N/A,,Clear,330,2012-04-29 14:51:00
11:51 AM,43.0,12.0,28,30.14,10.0,NW,12.7,26.5,N/A,,Clear,310,2012-04-29 15:51:00
12:51 PM,43.0,7.0,23,30.15,10.0,WNW,23.0,31.1,N/A,,Clear,300,2012-04-29 16:51:00
1:51 PM,44.1,10.0,25,30.15,10.0,NNW,15.0,31.1,N/A,,Clear,330,2012-04-29 17:51:00
2:51 PM,44.1,10.9,26,30.16,10.0,NNW,15.0,26.5,N/A,,Partly Cloudy,340,2012-04-29 18:51:00
3:51 PM,44.1,10.9,26,30.16,10.0,NW,18.4,33.4,N/A,,Clear,310,2012-04-29 19:51:00
4:51 PM,44.1,10.9,26,30.17,10.0,NW,17.3,25.3,N/A,,Clear,310,2012-04-29 20:51:00
5:51 PM,42.8,10.4,27,30.15,10.0,NNW,16.1,27.6,N/A,,Clear,330,2012-04-29 21:51:00
6:51 PM,42.1,10.0,27,30.20,10.0,NW,8.1,24.2,N/A,,Clear,320,2012-04-29 22:51:00
7:51 PM,39.9,10.0,29,30.22,10.0,WNW,10.4,19.6,N/A,,Clear,300,2012-04-29 23:51:00
8:51 PM,37.0,12.0,36,30.25,10.0,NW,5.8,-,N/A,,Clear,310,2012-04-30 00:51:00
9:51 PM,37.0,10.9,34,30.27,10.0,WNW,8.1,-,N/A,,Clear,300,2012-04-30 01:51:00
10:51 PM,37.9,10.0,32,30.28,10.0,NW,9.2,-,N/A,,Clear,310,2012-04-30 02:51:00
11:51 PM,39.0,9.0,29,30.29,10.0,NNW,10.4,-,N/A,,Clear,340,2012-04-30 03:51:00